Regional Weather Roundup
Issued by NWS

Home | Current Version | Previous Version | Graphics & Text | Print | Product List | Glossary On
Versions: 1 2 3 4 5 6 7 8 9 10 11 12 13 14 15 16 17 18 19 20 21 22 23 24 25 26 27 28 29 30 31 32 33 34 35 36 37 38 39 40 41 42 43 44 45 46 47 48 49 50
000
ASUS45 KSLC 261310
RWRUT

UTAH REGIONAL WEATHER ROUNDUP
NATIONAL WEATHER SERVICE SALT LAKE CITY UT
700 AM MDT WED JUL 26 2017

UTZ001>011-023>025-261400-

NORTHERN UTAH

CITY           SKY/WX    TMP DP  RH WIND       PRES   REMARKS
BRIGHAM CITY   CLOUDY    71  58  63 SE7G20    30.19R
HILL AFB       CLOUDY    64  62  91 E8        30.22S
LOGAN          CLOUDY    65  57  75 CALM      30.18R
OGDEN          LGT RAIN  67  62  84 SE8       30.19R
SALT LAKE CITY CLOUDY    67  64  90 SW5       30.19R
TOOELE VALLEY  MOCLDY    64  59  82 S10       30.20R
WENDOVER       PTCLDY    68  57  68 W6        30.17R
HEBER CITY     CLOUDY    61  57  88 CALM      30.27R
WEST JORDAN    CLOUDY    64  64 100 SW3       30.22S

$$

UTZ011>015-024>027-261400-

CENTRAL/NORTHEAST UTAH

CITY           SKY/WX    TMP DP  RH WIND       PRES   REMARKS
PROVO AIRPORT  CLOUDY    65  63  93 CALM      30.23R
MOAB/CANYONLAN MOCLDY    68  68 100 CALM      30.18R
DELTA          CLEAR     61  57  88 CALM      30.23R
PRICE          MOCLDY    60  58  92 N3        30.28R
RICHFIELD      CLEAR     59  59 100 CALM      30.29R
ROOSEVELT      CLOUDY    64  61  88 CALM      30.27R
VERNAL         MOCLDY    65  63  93 CALM      30.25R

$$

UTZ013>016-019>022-027-261400-

SOUTHERN UTAH

CITY           SKY/WX    TMP DP  RH WIND       PRES   REMARKS
BRYCE CANYON   CLEAR     51  50  96 W7        30.40R
CEDAR CITY     CLEAR     59  56  89 SE6       30.27S
MILFORD        CLEAR     59  57  93 S5        30.23R
ST GEORGE      CLOUDY    70  65  84 E3        30.14R
HANKSVILLE     MOCLDY    64  63  94 CALM      30.21R
KANAB          CLEAR     59  57  94 N3        30.30R
BLANDING       CLEAR     60  58  91 N3        30.36R

$$

REGIONAL REPORTS     COLORADO/ARIZONA

CITY           SKY/WX    TMP DP  RH WIND       PRES   REMARKS
CRAIG, CO      CLOUDY    62  59  90 CALM      30.30S
GRAND JUNCTION CLOUDY    67  66  97 SE6       30.22R
RIFLE, CO      LGT RAIN  63  62  97 CALM      30.28R FOG
MONTROSE, CO   CLOUDY    62  61  96 SE6       30.30R
CORTEZ, CO     CLOUDY    59  58  96 NE3       30.31R
COLORADO CITY    N/A     61  59  94 E3        30.27S
PAGE, AZ       CLEAR     70  61  73 N3        30.21R
GRAND CANYON   CLEAR     52  51  97 NE5       30.36S
KINGMAN, AZ    PTCLDY    67  62  84 SE3       30.14S
FLAGSTAFF, AZ  CLEAR     52  52 100 SW5       30.39R

$$

REGIONAL REPORTS    NEVADA/IDAHO/WYOMING

CITY           SKY/WX    TMP DP  RH WIND       PRES   REMARKS
LAS VEGAS, NV  PTCLDY    79  67  66 CALM      30.06S
ELY, NY        CLEAR     52  51  97 MISG      30.32R
ELKO, NV       CLEAR     59  52  77 CALM      30.23R
POCATELLO, ID  MOCLDY    65  55  70 SW8       30.18R
BURLEY, ID     CLOUDY    64  58  80 W3        30.16R
FORT BRIDGER,    N/A     57  54  89 W7        30.37R
EVANSTON, WY   LGT RAIN  55  54  96 SW5       30.35R
ROCK SPRINGS,  CLOUDY    58  53  84 S5        30.34R
KEMMERER, WY     N/A     54  46  76 NW5       30.36S

$$



USA.gov is the U.S. government's official web portal to all federal, state and local government web resources and services.